Location: Newark
(46.8167°N, 54.2000°W)
Time: 11:47:06
(UTC+00:00)

ISS - Visible Passes

Search period start: 19 October 2019 00:00
Search period end: 29 October 2019 00:00
Orbit: 411 x 421 km, 51.6° (Epoch: 19 October)

Date Brightness Start Highest point End Pass type
(mag) Time Alt. Az. Time Alt. Az. Time Alt. Az.
22 Oct -0.6 09:30:08 10° SSE 09:31:42 13° SE 09:33:16 10° ESE visible
24 Oct -1.7 09:27:57 10° SSW 09:30:56 29° SE 09:33:54 10° E visible
25 Oct -1.1 08:40:03 10° S 08:42:29 19° SE 08:44:56 10° E visible
26 Oct -0.8 07:52:48 10° SSE 07:54:06 12° SE 07:55:23 10° ESE visible
26 Oct -3.4 09:26:56 10° SW 09:30:17 67° SSE 09:33:38 10° ENE visible
27 Oct -2.7 08:39:39 19° SSW 08:41:44 43° SE 08:44:57 10° ENE visible
28 Oct -1.9 07:53:28 27° SE 07:53:28 27° SE 07:56:08 10° E visible
28 Oct -3.7 09:26:26 10° WSW 09:29:47 63° NNW 09:33:08 10° ENE visible
